Saint Simons Island, GA

2:36 AM EDT on June 28, 2017 (GMT -0400)
McKinnon

Weather History for KSSI - January, 2013

Change the Weather History Date:

Monday, January 28, 2013

  Actual Average Record
Temperature  
Mean Temperature 61 °F 52 °F  
Max Temperature 68 °F 61 °F 81 °F (1972)
Min Temperature 53 °F 43 °F 17 °F (1986)
Degree Days  
Heating Degree Days 4 13  
Month to date heating degree days 189 385  
Since 1 July heating degree days 659 916  
Cooling Degree Days 0 0  
Month to date cooling degree days 12 0  
Year to date cooling degree days 12 0  
Growing Degree Days 11 (Base 50)    
Moisture  
Dew Point 55 °F    
Average Humidity 82    
Maximum Humidity 100    
Minimum Humidity 63    
Precipitation  
Precipitation 0.00 in 0.11 in 1.56 in (1991)
Month to date precipitation 0.21 2.87  
Year to date precipitation 0.21 2.87  
Snow  
Snow 0.00 in - 0.00 in ()
Month to date snowfall 0.0  
Since 1 July snowfall 0.0  
Snow Depth 0.00 in    
Sea Level Pressure  
Sea Level Pressure 30.35 in    
Wind  
Wind Speed 7 mph (NE)    
Max Wind Speed 14 mph    
Max Gust Speed 20 mph    
Visibility 8 miles    
Events      
T = Trace of Precipitation, MM = Missing Value Source: NWS Daily Summary

Daily Weather History Graph

Daily Weather History Graph

Search for Another Location

Airport or City:

Trip Planner

Search our weather history database for the weather conditions in past years. The results will help you decide how hot, cold, wet, or windy it might be!

Date:

Astronomy

Jan. 28, 2013 Rise Set
Actual Time 7:19 AM EST 5:57 PM EST
Civil Twilight 6:54 AM EST 6:23 PM EST
Nautical Twilight 6:25 AM EST 6:52 PM EST
Astronomical Twilight 5:56 AM EST 7:21 PM EST
Moon 7:39 PM EST 7:54 AM EST
Length of Visible Light 11h 28m
Length of Day
10h 37m
Full, 98% of the Moon is Illuminated
Jan 28
Full
Feb 3
Last Quarter
Feb 10
New
Feb 17
First Quarter
Feb 25
Full

Hourly Weather History & Observations

Time (EST) Temp. Dew Point Humidity Pressure Visibility Wind Dir Wind Speed Gust Speed Precip Events Conditions
12:53 AM 55.9 °F 53.1 °F 90% 30.38 in 7.0 mi NNE 11.5 mph - N/A   Overcast
1:53 AM 55.9 °F 53.1 °F 90% 30.38 in 7.0 mi NNE 11.5 mph - N/A   Overcast
2:49 AM 57.2 °F 53.6 °F 88% 30.36 in 6.0 mi NE 9.2 mph - N/A   Overcast
2:53 AM 57.0 °F 54.0 °F 89% 30.36 in 6.0 mi NE 9.2 mph - N/A   Overcast
3:04 AM 55.4 °F 53.6 °F 94% 30.36 in 6.0 mi NE 8.1 mph - N/A   Overcast
3:13 AM 55.4 °F 53.6 °F 94% 30.36 in 6.0 mi NE 9.2 mph - N/A   Overcast
3:25 AM 55.4 °F 53.6 °F 94% 30.36 in 6.0 mi NNE 8.1 mph - N/A   Overcast
3:53 AM 55.9 °F 54.0 °F 93% 30.36 in 5.0 mi NE 10.4 mph - N/A   Overcast
4:51 AM 55.4 °F 53.6 °F 94% 30.35 in 5.0 mi NNE 8.1 mph - N/A   Overcast
4:53 AM 55.9 °F 54.0 °F 93% 30.35 in 5.0 mi NNE 8.1 mph - N/A   Overcast
5:09 AM 55.4 °F 53.6 °F 94% 30.36 in 6.0 mi NNE 10.4 mph - N/A   Overcast
5:53 AM 55.0 °F 54.0 °F 96% 30.35 in 6.0 mi NNE 8.1 mph - N/A   Partly Cloudy
6:53 AM 54.0 °F 53.1 °F 97% 30.37 in 5.0 mi NNE 4.6 mph - N/A   Scattered Clouds
7:53 AM 54.0 °F 52.0 °F 93% 30.40 in 4.0 mi North 4.6 mph - N/A   Partly Cloudy
8:53 AM 55.9 °F 53.1 °F 90% 30.41 in 7.0 mi North 6.9 mph - N/A   Partly Cloudy
9:53 AM 59.0 °F 53.1 °F 81% 30.41 in 10.0 mi NE 3.5 mph - N/A   Mostly Cloudy
10:53 AM 61.0 °F 53.1 °F 75% 30.41 in 10.0 mi NE 4.6 mph - N/A   Clear
11:53 AM 64.9 °F 54.0 °F 68% 30.39 in 10.0 mi ENE 8.1 mph - N/A   Partly Cloudy
12:53 PM 66.0 °F 55.0 °F 68% 30.35 in 10.0 mi East 5.8 mph - N/A   Clear
1:53 PM 64.0 °F 55.0 °F 73% 30.32 in 10.0 mi ENE 11.5 mph - N/A   Clear
2:53 PM 68.0 °F 55.9 °F 65% 30.31 in 10.0 mi ENE 8.1 mph - N/A   Partly Cloudy
3:53 PM 64.9 °F 55.9 °F 73% 30.31 in 10.0 mi East 6.9 mph - N/A   Overcast
4:53 PM 61.0 °F 55.0 °F 81% 30.30 in 10.0 mi ENE 8.1 mph - N/A   Mostly Cloudy
5:53 PM 60.1 °F 57.0 °F 90% 30.31 in 10.0 mi ENE 4.6 mph - N/A   Overcast
6:53 PM 61.0 °F 57.0 °F 87% 30.31 in 10.0 mi NE 6.9 mph - N/A   Overcast
7:53 PM 61.0 °F 57.0 °F 87% 30.30 in 10.0 mi ENE 5.8 mph - N/A   Overcast
8:53 PM 61.0 °F 57.9 °F 90% 30.30 in 9.0 mi East 3.5 mph - N/A   Overcast
9:53 PM 61.0 °F 57.9 °F 90% 30.30 in 10.0 mi ENE 3.5 mph - N/A   Overcast
10:53 PM 61.0 °F 57.9 °F 90% 30.30 in 9.0 mi Calm Calm - N/A   Overcast
11:53 PM 59.0 °F 57.0 °F 93% 30.29 in 7.0 mi Calm Calm - N/A   Clear